EW5712 Weather Reports


time (UTC)temp
F
wind
direction
speed
knots
gust
knots
rain 1hr
in
rain 24hr
in
rain mn
in
humidity
%
barometer
mb
20260504213657 71 132 0.0 0.0 0.00 0.00 0.00 38 1006.3
20260504212653 71 158 0.0 0.0 0.00 0.00 0.00 37 1006.3
20260504211644 72 289 0.0 0.0 0.00 0.00 0.00 36 1006.5
20260504210643 72 325 0.0 0.0 0.00 0.00 0.00 36 1006.7
20260504205628 72 190 0.0 0.0 0.00 0.00 0.00 36 1006.6
20260504204613 72 266 0.0 7.0 0.00 0.00 0.00 36 1006.7
20260504203625 72 338 0.0 0.0 0.00 0.00 0.00 35 1006.9
20260504202635 72 180 0.0 0.0 0.00 0.00 0.00 35 1006.8
20260504201658 73 184 0.0 0.0 0.00 0.00 0.00 35 1007.1
20260504200655 72 156 0.0 0.0 0.00 0.00 0.00 37 1007.1
20260504195639 71 157 0.0 0.0 0.00 0.00 0.00 38 1007.2
20260504194621 71 313 0.0 0.0 0.00 0.00 0.00 37 1007.3
20260504193617 71 223 0.0 0.0 0.00 0.00 0.00 36 1007.4
20260504191610 71 5 0.0 0.0 0.00 0.00 0.00 38 1007.7
20260504190618 71 160 0.0 0.0 0.00 0.00 0.00 37 1007.6
20260504185641 71 177 0.0 0.0 0.00 0.00 0.00 37 1007.7
20260504184632 71 136 0.0 0.0 0.00 0.00 0.00 36 1007.9
20260504183643 71 186 0.0 0.0 0.00 0.00 0.00 36 1007.8
20260504182654 71 157 0.0 0.0 0.00 0.00 0.00 37 1008.0
20260504180722 71 152 0.0 0.0 0.00 0.00 0.00 35 1008.2
20260504175658 70 327 0.0 4.3 0.00 0.00 0.00 36 1008.4
20260504173649 69 163 0.0 0.0 0.00 0.00 0.00 37 1008.5
20260504171710 69 341 0.0 0.0 0.00 0.00 0.00 38 1008.8
20260504170708 68 307 0.0 0.0 0.00 0.00 0.00 36 1008.9
20260504150545 60 173 0.0 0.0 0.00 0.00 0.00 43 1010.4
20260504130556 49 163 0.0 0.0 0.00 0.00 0.00 60 1011.1
20260504100513 42 303 0.0 0.0 0.00 0.00 0.00 70 1011.1
20260504080558 44 304 0.0 0.0 0.00 0.00 0.00 68 1011.3
20260504050422 46 304 0.0 0.0 0.00 0.00 0.00 63 1010.9
20260504045421 46 304 0.0 0.0 0.00 0.00 0.00 63 1010.7
20260504042440 47 304 0.0 0.0 0.00 0.00 0.00 60 1010.6
20260504041440 47 304 0.0 0.0 0.00 0.00 0.00 59 1010.6
20260504040501 47 304 0.0 0.0 0.00 0.00 0.00 58 1010.5
20260504035504 47 304 0.0 0.0 0.00 0.00 0.00 58 1010.6
20260504034459 47 304 0.0 0.0 0.00 0.00 0.00 58 1010.5
20260504033435 48 304 0.0 0.0 0.00 0.00 0.00 58 1010.6
20260504032423 48 304 0.0 0.0 0.00 0.00 0.00 57 1010.5
20260504030405 48 304 0.0 0.0 0.00 0.00 0.00 58 1010.5
20260504025400 48 304 0.0 0.0 0.00 0.00 0.00 58 1010.5
20260504024403 48 304 0.0 0.0 0.00 0.00 0.00 57 1010.6
20260504023359 48 304 0.0 0.0 0.00 0.00 0.00 58 1010.6
20260504022402 49 304 0.0 0.0 0.00 0.00 0.00 57 1010.5
20260504021411 49 304 0.0 0.0 0.00 0.00 0.00 58 1010.4
20260504020418 50 304 0.0 0.0 0.00 0.00 0.00 56 1010.3
20260504014354 51 304 0.0 0.0 0.00 0.00 0.00 53 1010.1
20260504012415 52 304 0.0 0.0 0.00 0.00 0.00 52 1010.0
20260504011407 52 304 0.0 0.0 0.00 0.00 0.00 50 1010.0
20260504010358 53 304 0.0 0.0 0.00 0.00 0.00 51 1009.9
20260504004338 54 304 0.0 0.0 0.00 0.00 0.00 46 1009.6
20260504003333 55 304 0.0 0.0 0.00 0.00 0.00 45 1009.6
20260504002352 55 304 0.0 0.0 0.00 0.00 0.00 44 1009.5
20260504001347 55 304 0.0 0.0 0.00 0.00 0.00 43 1009.5
20260504000342 56 304 0.0 0.0 0.00 0.00 0.00 42 1009.5
20260503235332 56 303 0.0 0.0 0.00 0.00 0.00 42 1009.4
20260503234309 56 303 0.0 0.0 0.00 0.00 0.00 40 1009.4
20260503231326 58 292 0.0 0.0 0.00 0.00 0.00 39 1009.4
20260503230310 58 290 0.0 3.5 0.00 0.00 0.00 40 1009.2
20260503225300 58 307 0.0 1.7 0.00 0.00 0.00 40 1009.2
20260503224302 58 302 0.0 0.0 0.00 0.00 0.00 40 1009.3
20260503222304 58 312 0.0 0.0 0.00 0.00 0.00 38 1009.4
20260503215312 59 309 0.0 0.0 0.00 0.00 0.00 36 1009.4
20260503214319 59 299 0.0 0.0 0.00 0.00 0.00 37 1009.3